• în România
  • Lista ţărilor
  • Pe 7 zile
  • Temperatura apei
  • Hartă satelitară
  • Meteo pe hartă
  • Widget-uri
  • user-avatar
    Intrare

    Meteo pe oră la Mahilyow

    Astăzi, 18 Iunie, Luni

    Timp Temperatura Precipitaţii Vânt Presiune Umiditate
    00:00 +17°C° 0,1 mm 2 m/s 748 mmHg 95%
    01:00 +17°C° 0,1 mm 2 m/s 748 mmHg 96%
    02:00 +17°C° 0 mm 2 m/s 748 mmHg 96%
    03:00 +18°C° 0,2 mm 1 m/s 748 mmHg 96%
    04:00 +18°C° 0,2 mm 1 m/s 748 mmHg 96%
    05:00 +18°C° 0,2 mm 1 m/s 748 mmHg 95%
    06:00 +19°C° 0 mm 1 m/s 748 mmHg 91%
    07:00 +21°C° 0 mm 1 m/s 748 mmHg 87%
    08:00 +22°C° 0 mm 1 m/s 748 mmHg 83%
    09:00 +23°C° 0,1 mm 2 m/s 748 mmHg 78%
    10:00 +24°C° 0,1 mm 2 m/s 748 mmHg 73%
    11:00 +25°C° 0,1 mm 2 m/s 748 mmHg 68%
    12:00 +26°C° 0 mm 2 m/s 748 mmHg 65%
    13:00 +27°C° 0 mm 2 m/s 748 mmHg 61%
    14:00 +28°C° 0 mm 2 m/s 748 mmHg 58%
    15:00 +27°C° 0 mm 2 m/s 748 mmHg 59%
    16:00 +27°C° 0 mm 2 m/s 748 mmHg 59%
    17:00 +27°C° 0 mm 2 m/s 748 mmHg 60%
    18:00 +26°C° 0 mm 2 m/s 748 mmHg 67%
    19:00 +24°C° 0 mm 1 m/s 748 mmHg 73%
    20:00 +22°C° 0 mm 1 m/s 748 mmHg 80%
    21:00 +22°C° 0 mm 1 m/s 748 mmHg 82%
    22:00 +21°C° 0 mm 1 m/s 748 mmHg 84%
    23:00 +20°C° 0 mm 1 m/s 748 mmHg 86%

    Mâine, 19 Iunie, Marţi

    Timp Temperatura Precipitaţii Vânt Presiune Umiditate
    00:00 +20°C° 0 mm 1 m/s 748 mmHg 87%
    01:00 +19°C° 0 mm 1 m/s 748 mmHg 88%
    02:00 +19°C° 0 mm 1 m/s 748 mmHg 89%
    03:00 +19°C° 0 mm 1 m/s 748 mmHg 89%
    04:00 +19°C° 0 mm 1 m/s 748 mmHg 89%
    05:00 +19°C° 0 mm 1 m/s 748 mmHg 90%
    06:00 +20°C° 0,1 mm 2 m/s 749 mmHg 84%
    07:00 +21°C° 0,1 mm 2 m/s 749 mmHg 79%
    08:00 +24°C° 0,1 mm 2 m/s 749 mmHg 73%
    09:00 +25°C° 0 mm 3 m/s 749 mmHg 68%
    10:00 +26°C° 0 mm 3 m/s 749 mmHg 63%
    11:00 +27°C° 0 mm 3 m/s 749 mmHg 58%
    12:00 +28°C° 0,1 mm 3 m/s 749 mmHg 57%
    13:00 +28°C° 0,1 mm 3 m/s 748 mmHg 56%
    14:00 +28°C° 0,1 mm 3 m/s 748 mmHg 55%
    15:00 +28°C° 0,1 mm 3 m/s 748 mmHg 57%
    16:00 +28°C° 0,1 mm 3 m/s 748 mmHg 58%
    17:00 +28°C° 0,1 mm 3 m/s 748 mmHg 60%
    18:00 +26°C° 0,1 mm 3 m/s 748 mmHg 65%
    19:00 +24°C° 0,1 mm 3 m/s 748 mmHg 71%
    20:00 +21°C° 0,1 mm 2 m/s 748 mmHg 76%
    21:00 +20°C° 0 mm 2 m/s 748 mmHg 78%
    22:00 +19°C° 0 mm 2 m/s 748 mmHg 79%
    23:00 +18°C° 0 mm 2 m/s 748 mmHg 81%

    Poimâine, 20 Iunie, Miercuri

    Timp Temperatura Precipitaţii Vânt Presiune Umiditate
    00:00 +17°C° 0 mm 2 m/s 749 mmHg 83%
    01:00 +17°C° 0 mm 2 m/s 749 mmHg 86%
    02:00 +16°C° 0 mm 2 m/s 749 mmHg 88%
    03:00 +16°C° 0 mm 2 m/s 749 mmHg 89%
    04:00 +16°C° 0 mm 2 m/s 750 mmHg 90%
    05:00 +16°C° 0 mm 3 m/s 750 mmHg 91%
    06:00 +18°C° 0 mm 3 m/s 750 mmHg 84%
    07:00 +19°C° 0 mm 3 m/s 750 mmHg 77%
    08:00 +20°C° 0 mm 3 m/s 750 mmHg 70%
    09:00 +21°C° 0 mm 4 m/s 750 mmHg 67%
    10:00 +22°C° 0 mm 4 m/s 750 mmHg 64%
    11:00 +25°C° 0 mm 4 m/s 750 mmHg 60%
    12:00 +25°C° 0 mm 5 m/s 750 mmHg 57%
    13:00 +26°C° 0 mm 5 m/s 750 mmHg 54%
    14:00 +26°C° 0 mm 5 m/s 750 mmHg 51%
    15:00 +26°C° 0 mm 5 m/s 750 mmHg 52%
    16:00 +25°C° 0 mm 4 m/s 750 mmHg 53%
    17:00 +25°C° 0 mm 4 m/s 750 mmHg 54%
    18:00 +22°C° 0 mm 3 m/s 750 mmHg 60%
    19:00 +21°C° 0 mm 3 m/s 750 mmHg 67%
    20:00 +19°C° 0 mm 2 m/s 750 mmHg 73%
    21:00 +18°C° 0 mm 2 m/s 750 mmHg 75%
    22:00 +17°C° 0 mm 2 m/s 750 mmHg 78%
    23:00 +16°C° 0 mm 2 m/s 750 mmHg 80%

    21 Iunie, Joi

    Timp Temperatura Precipitaţii Vânt Presiune Umiditate
    00:00 +15°C° 0 mm 2 m/s 750 mmHg 82%
    01:00 +14°C° 0 mm 2 m/s 750 mmHg 84%
    02:00 +14°C° 0 mm 2 m/s 750 mmHg 86%
    03:00 +14°C° 0 mm 2 m/s 750 mmHg 86%
    04:00 +14°C° 0 mm 1 m/s 750 mmHg 86%
    05:00 +14°C° 0 mm 1 m/s 750 mmHg 86%
    06:00 +16°C° 0 mm 1 m/s 750 mmHg 78%
    07:00 +19°C° 0 mm 1 m/s 750 mmHg 70%
    08:00 +21°C° 0 mm 1 m/s 750 mmHg 62%
    09:00 +21°C° 0 mm 2 m/s 749 mmHg 56%
    10:00 +24°C° 0 mm 2 m/s 749 mmHg 51%
    11:00 +25°C° 0 mm 2 m/s 749 mmHg 46%
    12:00 +26°C° 0 mm 2 m/s 748 mmHg 45%
    13:00 +27°C° 0 mm 2 m/s 748 mmHg 44%
    14:00 +27°C° 0 mm 2 m/s 747 mmHg 42%
    15:00 +27°C° 0 mm 2 m/s 747 mmHg 45%
    16:00 +27°C° 0 mm 2 m/s 746 mmHg 47%
    17:00 +27°C° 0 mm 2 m/s 746 mmHg 49%
    18:00 +26°C° 0 mm 3 m/s 745 mmHg 57%
    19:00 +24°C° 0 mm 3 m/s 745 mmHg 64%
    20:00 +21°C° 0 mm 3 m/s 745 mmHg 71%
    21:00 +21°C° 0 mm 3 m/s 744 mmHg 70%
    22:00 +20°C° 0 mm 4 m/s 744 mmHg 70%
    23:00 +20°C° 0 mm 4 m/s 744 mmHg 69%

    22 Iunie, Vineri

    Timp Temperatura Precipitaţii Vânt Presiune Umiditate
    00:00 +20°C° 0 mm 4 m/s 743 mmHg 72%
    01:00 +20°C° 0 mm 4 m/s 743 mmHg 75%
    02:00 +20°C° 0 mm 5 m/s 742 mmHg 78%
    03:00 +20°C° 0,4 mm 5 m/s 741 mmHg 82%
    04:00 +20°C° 0,4 mm 5 m/s 741 mmHg 86%
    05:00 +20°C° 0,4 mm 5 m/s 740 mmHg 89%
    06:00 +21°C° 0,4 mm 5 m/s 740 mmHg 88%
    07:00 +22°C° 0,4 mm 6 m/s 740 mmHg 87%
    08:00 +23°C° 0,4 mm 6 m/s 740 mmHg 85%
    09:00 +23°C° 1,2 mm 6 m/s 740 mmHg 85%
    10:00 +23°C° 1,2 mm 5 m/s 741 mmHg 86%
    11:00 +23°C° 1,2 mm 5 m/s 741 mmHg 86%
    12:00 +23°C° 0,5 mm 5 m/s 741 mmHg 80%
    13:00 +23°C° 0,5 mm 4 m/s 741 mmHg 75%
    14:00 +25°C° 0,5 mm 4 m/s 741 mmHg 69%
    15:00 +23°C° 0,1 mm 4 m/s 741 mmHg 66%
    16:00 +23°C° 0,1 mm 4 m/s 741 mmHg 64%
    17:00 +23°C° 0,1 mm 4 m/s 741 mmHg 61%
    18:00 +21°C° 0 mm 3 m/s 741 mmHg 64%
    19:00 +20°C° 0 mm 3 m/s 741 mmHg 66%
    20:00 +18°C° 0 mm 3 m/s 741 mmHg 68%
    21:00 +17°C° 0,2 mm 3 m/s 742 mmHg 72%
    22:00 +17°C° 0,2 mm 3 m/s 742 mmHg 75%
    23:00 +16°C° 0,2 mm 3 m/s 743 mmHg 79%

    23 Iunie, Sâmbătă

    Timp Temperatura Precipitaţii Vânt Presiune Umiditate
    00:00 +14°C° 0,3 mm 3 m/s 743 mmHg 81%
    01:00 +15°C° 0,3 mm 2 m/s 743 mmHg 83%
    02:00 +14°C° 0,3 mm 2 m/s 743 mmHg 86%
    03:00 +14°C° 0,1 mm 2 m/s 743 mmHg 85%
    04:00 +14°C° 0,1 mm 2 m/s 743 mmHg 85%
    05:00 +14°C° 0,1 mm 2 m/s 744 mmHg 85%
    06:00 +14°C° 0,1 mm 2 m/s 744 mmHg 81%
    07:00 +14°C° 0,1 mm 2 m/s 744 mmHg 78%
    08:00 +15°C° 0,1 mm 2 m/s 744 mmHg 74%
    09:00 +15°C° 0,1 mm 2 m/s 744 mmHg 73%
    10:00 +15°C° 0,1 mm 2 m/s 744 mmHg 71%
    11:00 +15°C° 0,1 mm 2 m/s 745 mmHg 70%
    12:00 +16°C° 0,1 mm 2 m/s 745 mmHg 66%
    13:00 +17°C° 0,1 mm 2 m/s 745 mmHg 61%
    14:00 +18°C° 0,1 mm 2 m/s 745 mmHg 57%
    15:00 +18°C° 0 mm 2 m/s 745 mmHg 55%
    16:00 +19°C° 0 mm 2 m/s 744 mmHg 54%
    17:00 +20°C° 0 mm 1 m/s 744 mmHg 52%
    18:00 +19°C° 0 mm 1 m/s 744 mmHg 58%
    19:00 +17°C° 0 mm 2 m/s 745 mmHg 64%
    20:00 +16°C° 0 mm 2 m/s 745 mmHg 71%
    21:00 +15°C° 0 mm 2 m/s 745 mmHg 74%
    22:00 +14°C° 0 mm 2 m/s 745 mmHg 78%
    23:00 +13°C° 0 mm 2 m/s 745 mmHg 82%
    Arată mai mult